Location: Unspecified
(40.7945°N, 111.1337°W)
Time: 17:10:19
(UTC-06:00)

Resurs 1-4 Rocket - Visible Passes

Search period start: 20 August 2017 00:00
Search period end: 30 August 2017 00:00
Orbit: 799 x 815 km, 98.5° (Epoch: 20 August)

Date Brightness Start Highest point End Pass type
(mag) Time Alt. Az. Time Alt. Az. Time Alt. Az.
20 Aug 2.3 03:30:34 10° NNE 03:35:33 63° E 03:35:33 63° E visible
20 Aug 3.7 05:11:47 10° NNW 05:15:05 17° WNW 05:16:38 15° W visible
21 Aug 3.2 03:06:16 10° NNE 03:10:36 36° E 03:10:36 36° E visible
21 Aug 3.2 04:46:25 10° N 04:50:47 27° WNW 04:51:41 26° W visible
22 Aug 4.0 02:42:20 10° NE 02:45:39 22° E 02:45:39 22° E visible
22 Aug 2.5 04:21:26 10° N 04:26:24 44° WNW 04:26:43 44° W visible
23 Aug 4.6 02:19:13 10° ENE 02:20:42 12° E 02:20:42 12° E visible
23 Aug 2.0 03:56:40 10° N 04:01:46 74° WNW 04:01:46 74° WNW visible
24 Aug 2.4 03:32:07 10° NNE 03:36:49 61° ENE 03:36:49 61° ENE visible
24 Aug 3.8 05:13:27 10° NNW 05:16:38 17° WNW 05:17:54 15° WNW visible
25 Aug 3.3 03:07:48 10° NNE 03:11:51 36° ENE 03:11:51 36° ENE visible
25 Aug 3.2 04:48:02 10° N 04:52:21 26° WNW 04:52:56 26° WNW visible
26 Aug 4.0 02:43:50 10° NE 02:46:54 22° ENE 02:46:54 22° ENE visible
26 Aug 2.6 04:23:01 10° N 04:27:58 43° WNW 04:27:58 43° WNW visible
27 Aug 4.6 02:20:36 10° ENE 02:21:57 13° ENE 02:21:57 13° ENE visible
27 Aug 2.2 03:58:15 10° N 04:03:01 67° NW 04:03:01 67° NW visible
28 Aug 2.6 03:33:41 10° NNE 03:38:03 57° NE 03:38:03 57° NE visible
28 Aug 3.8 05:15:06 10° NNW 05:18:11 16° WNW 05:19:07 15° WNW visible
29 Aug 3.4 03:09:21 10° NNE 03:13:06 35° ENE 03:13:06 35° ENE visible
29 Aug 3.3 04:49:39 10° NNW 04:53:54 26° WNW 04:54:10 25° WNW visible
